Regional Weather Roundup
Issued by NWS

Home | Current Version | Previous Version | Text Only | Print | Product List | Glossary Off
Versions: 1 2 3 4 5 6 7 8 9 10 11 12 13 14 15 16 17 18 19 20 21 22 23 24 25 26 27 28 29 30 31 32 33 34 35 36 37 38 39 40 41 42 43 44 45 46 47 48 49 50

000
ASUS43 KMKX 221411
RWRWI

WISCONSIN REGIONAL WEATHER ROUNDUP
NATIONAL WEATHER SERVICE MILWAUKEE/SULLIVAN WI
900 AM CDT WED MAR 22 2017

NOTE: "FAIR" INDICATES FEW OR NO CLOUDS BELOW 12,000 FEET WITH NO
SIGNIFICANT WEATHER AND/OR OBSTRUCTIONS TO VISIBILITY.

WIZ001-002-006>008-014>016-023>028-221500-
NORTHWEST WISCONSIN

CITY           SKY/WX    TMP DP  RH WIND       PRES   REMARKS
SUPERIOR ARPT  SUNNY     24   8  51 SE6       30.59F WCI  16
ASHLAND        SUNNY     21  10  62 VRB5      30.60S WCI  15
HAYWARD        SUNNY     20   8  60 VRB6      30.55F WCI  12
SIREN          SUNNY     22   7  52 CALM      30.56F
CUMBERLAND     SUNNY     23   7  50 SE10      30.54F WCI  12
RICE LAKE      SUNNY     23   8  54 E6        30.57F WCI  15
CHETEK         SUNNY     22   9  56 E8        30.57S WCI  12
LADYSMITH      SUNNY     22   7  52 SE9       30.58S WCI  12
EAU CLAIRE     SUNNY     24   8  50 E13       30.57S WCI  12
MENOMONIE      SUNNY     25  11  55 E7        30.57S WCI  17
NEW RICHMOND   SUNNY     24   8  51 SE9       30.55S WCI  14
OSCEOLA        SUNNY     24   9  53 SE9       30.59S WCI  14
$$

WIZ003>005-009-010-017-018-221500-
NORTH CENTRAL WISCONSIN

CITY           SKY/WX    TMP DP  RH WIND       PRES   REMARKS
MANITOWISH WTR SUNNY     15   7  68 SE6       30.54S WCI   7
ARBOR VITAE    SUNNY     18   8  66 SE6       30.53S WCI  10
WOODRUFF       SUNNY     18   8  66 SE6       30.53S WCI  10
RHINELANDER    SUNNY     18   8  65 E9        30.55R WCI   7
EAGLE RIVER    SUNNY     17   8  68 E6        30.54S WCI   8
LAND O LAKES   SUNNY     15   9  75 SE3       30.55F
PHILLIPS       SUNNY     17   8  66 SE5       30.55R WCI  10
TOMAHAWK       SUNNY     18  11  71 E7        30.56S WCI   9
MEDFORD        SUNNY     20   6  54 E7        30.54S WCI  11
MERRILL        SUNNY     19   8  60 E6        30.58S WCI  11
$$

WIZ029-030-035-036-043>047-221500-
CENTRAL WISCONSIN

CITY           SKY/WX    TMP DP  RH WIND       PRES   REMARKS
WAUSAU         SUNNY     20   9  62 E12       30.56R WCI   8
MOSINEE        SUNNY     21  10  63 E5        30.58R WCI  15
MARSHFIELD     SUNNY     22   7  52 E10       30.55R WCI  11
STEVENS POINT  SUNNY     19   7  58 E10       30.59R WCI   8
WAUPACA        SUNNY     26  10  52 E7        30.61R WCI  18
WAUTOMA        SUNNY     23  10  57 NE9       30.60R WCI  13
WISC RAPIDS    SUNNY     23   8  52 E12       30.60R WCI  12
CAMP DOUGLAS   SUNNY     23  10  58 E8        30.58R WCI  14
$$

WIZ011>013-019>022-031-037>040-048>050-221500-
NORTHEAST WISCONSIN

CITY           SKY/WX    TMP DP  RH WIND       PRES   REMARKS
ANTIGO         SUNNY     18   7  61 E6        30.56R WCI  10
SHAWANO        SUNNY     23  11  58 E7        30.63R WCI  15
OCONTO         MOSUNNY   22   8  54 NE9       30.63R WCI  12
STURGEON BAY   MOSUNNY   21  11  65 N9        30.63R WCI  11
GREEN BAY      SUNNY     24  13  62 N9        30.61R WCI  14
MANITOWOC      CLOUDY    23  13  65 N10       30.61R WCI  12
APPLETON       SUNNY     21   7  53 NE10      30.58R WCI  10
CLINTONVILLE   SUNNY     23   9  54 E8        30.61R WCI  14
OSHKOSH        SUNNY     24  10  55 NE9       30.59R WCI  14
$$

WIZ032>034-041-042-053>061-221500-
SOUTHWEST WISCONSIN

CITY           SKY/WX    TMP DP  RH WIND       PRES   REMARKS
LA CROSSE      SUNNY     26   8  46 SE8       30.60R WCI  18
SPARTA         SUNNY     24  11  57 E10       30.59S WCI  14
VIROQUA        SUNNY     24   8  49 E12G18    30.54R WCI  13
BOSCOBEL       MOSUNNY   27   6  41 E9        30.60R WCI  18
PRAIRIE DU CHI MOSUNNY   27   7  43 E8        30.59R WCI  18
PLATTEVILLE    SUNNY     26  13  58 E13       30.57R WCI  15
$$

WIZ056-057-062-063-064-067-068-221500-
SOUTH CENTRAL WISCONSIN

CITY           SKY/WX    TMP DP  RH WIND       PRES   REMARKS
REEDSBURG      SUNNY     24   9  53 E3        30.58R
BARABOO/DELLS  SUNNY     24   9  51 E9        30.58R WCI  14
LONE ROCK      SUNNY     26   6  42 E12       30.60R WCI  16
MINERAL POINT  SUNNY     27   9  46 E12       30.56R WCI  16
MADISON        SUNNY     24   7  48 NE9       30.58R WCI  14
MIDDLETON      SUNNY     26  10  49 E9        30.59R WCI  17
WATERTOWN      SUNNY     25  11  55 NE8       30.58R WCI  16
MONROE         SUNNY     27  10  50 NE9       30.56R WCI  17
JANESVILLE     SUNNY     27   9  46 NE9G16    30.57R WCI  17
$$

WIZ051-052-058>065-066-070>072-221500-
SOUTHEAST WISCONSIN

CITY           SKY/WX    TMP DP  RH WIND       PRES   REMARKS
MILWAUKEE      PTSUNNY   29  15  56 NE9       30.57R WCI  20
WAUKESHA       SUNNY     25  10  54 NE8       30.58R WCI  16
MILWAUKEE/TIMM PTSUNNY   25   9  50 N8        30.59R WCI  16
RACINE         CLOUDY    30  15  53 NE14G22   30.58R WCI  19
KENOSHA        CLOUDY    29  16  58 NE12G21   30.57R WCI  19
FOND DU LAC    SUNNY     25   9  50 E10       30.59R WCI  15
SHEBOYGAN      CLOUDY    24  12  60 NE10      30.59R WCI  14
WEST BEND      CLOUDY    25  12  58 NE7       30.58R WCI  17
JUNEAU         SUNNY     23  10  57 NE7       30.59R WCI  15
$$

LSZ147-162-221500-
LAKE SUPERIOR

STATION/POSITION TIME  TEMP    WIND        PRES    WAVE
                       AIR SEA DIR/SP/G            HT/PER
                 (UTC) (F)     (DEG/KT/KT) (MB)    (FT/S)
DEVILS ISLAND    1400   23     120/  5/  8 1037.7S
PORT WING        1340   22     120/  3/  5 1035.9S
SAXON HARBOR     1230   16     180/  3/  4 1035.9R
$$

LMZ867-665-643>646-221500-
LAKE MICHIGAN

STATION/POSITION TIME  TEMP    WIND        PRES    WAVE
                       AIR SEA DIR/SP/G            HT/PER
                 (UTC) (F)     (DEG/KT/KT) (MB)    (FT/S)
CHAMBERS ISLAND  1240   21      20/ 10/ 14 1035.6R
NORTHPORT PIER   1340   22      50/  5/  8 1036.9R
SISTER BAY       1350   28      20/ 10/ 15   N/A
KEWAUNEE LAKESHO 1348   22     350/  7/ 11 1035.8R
SHEBOYGAN LAKESH 1400   25      20/ 13/ 16 1036.7R
PORT WASHINGTON  1330   25     350/  5/ 10 1036.6R
MILWAUKEE LAKESH 1350   28      50/ 10/ 11   N/A
KENOSHA   LAKESH 1400   29      70/ 10/ 17 1035.2
$$

TC  - TEMPERATURE IN CELSIUS
VSB - VISIBILITY IN STATUTE MILES
WCI - WIND CHILL INDEX
HX  - HEAT INDEX





USA.gov is the U.S. government's official web portal to all federal, state and local government web resources and services.